Flag for Gibraltar Weather past 2 weeks in Gibraltar, Gibraltar

Now
79 °F

Passing clouds.


Feels Like: 80 °F
Forecast: 67 / 76 °F
Wind: 7 mph from Southwest

Location: Gibraltar Airport

Current Time: Aug 23, 2014 at 11:58:22 AM

Latest Report: Aug 23, 2014 at 10:50 AM


Visibility: N/A

Pressure: 30.01 "Hg

Humidity: 48%

Dew point: 57 °F

Location of GibraltarLocation

Historic Weather in Gibraltar — Graph

°F

Gibraltar temperature yesterday

Maximum temperature yesterday: 81 °F (at 2:50 PM)
Minimum temperature yesterday: 68 °F (at 6:50 AM)
Average temperature yesterday: 74 °F

Past Weeks' High & Low Weather Summary

 TemperatureHumidityPressure
High86 °F (Aug 11, 3:50 PM)100% (Aug 9, 4:50 AM)30.07 "Hg (Aug 9, 4:50 AM)
Low68 °F (Aug 9, 4:50 AM)25% (Aug 21, 3:50 AM)29.83 "Hg (Aug 8, 7:50 PM)
Average76 °F66%29.96 "Hg
* Reported Aug 8 10:50 AM — Aug 23 10:50 AM, Gibraltar, Weather by CustomWeather, © 2014

Note: Actual official high and low records may vary slightly from our data, if they occured in-between our weather recording intervals... More about our weather records

Advertising

Gibraltar weather history for previous 24 hours

 ConditionsComfort  
Time TempWeatherWind HumidityBarometerVisibility
10:50 AM
Aug 23
79 °FPassing clouds.7 mph48%30.01 "HgN/A
9:50 AM75 °FPassing clouds.8 mph57%29.98 "HgN/A
8:50 AM73 °FPassing clouds.8 mph61%29.98 "HgN/A
7:50 AM72 °FPassing clouds.12 mph65%29.98 "HgN/A
6:50 AM72 °FPassing clouds.12 mph69%29.95 "HgN/A
5:50 AM72 °FClear.16 mph69%29.95 "HgN/A
4:50 AM73 °FClear.14 mph61%29.95 "HgN/A
3:50 AM73 °FClear.13 mph61%29.98 "HgN/A
2:50 AM73 °FClear.12 mph53%29.98 "HgN/A
1:50 AM73 °FClear.13 mph50%30.01 "HgN/A
12:50 AM72 °FClear.18 mph57%30.01 "HgN/A
11:50 PM
Aug 22
72 °FClear.20 mph61%29.98 "HgN/A
10:50 PM73 °FClear.15 mph57%29.98 "Hg10 mi
9:50 PM75 °FSunny.16 mph54%29.95 "Hg10 mi
8:50 PM75 °FSunny.16 mph54%29.95 "Hg10 mi
7:50 PM79 °FSunny.16 mph45%29.95 "Hg10 mi
6:50 PM79 °FSunny.17 mph45%29.95 "Hg10 mi
5:50 PM79 °FSunny.18 mph45%29.95 "Hg10 mi
4:50 PM81 °FSunny.16 mph42%29.95 "Hg10 mi
3:50 PM81 °FSunny.14 mph37%29.98 "Hg10 mi
2:50 PM81 °FSunny.13 mph42%30.01 "Hg10 mi
1:50 PM79 °FSunny.15 mph45%30.01 "Hg10 mi
12:50 PM77 °FPassing clouds.15 mph51%30.01 "HgN/A
11:50 AM75 °FPassing clouds.13 mph57%30.04 "HgN/A
Weather by CustomWeather, © 2014

See weather overviewHow to use our weather pages